Showing default

CONNECTA IOT-2, 60522

Orbit data source: Space-Track

CONNECTA IOT-2, 60522 is a payload satellite owned by Plan-S (TR) in SSO that was launched on Fri, 16 Aug 2024 UTC via an FALCON 9 launch vehicle from the Air Force Western Test Range (AFWTR). Payload-class satellites include a variety of spacecraft equipped with specific instruments for various scientific and technological missions. These include communications satellites like Starlink; space stations such as the ISS; scientific satellites like the Hubble; Earth observation satellites from companies like Planet Labs, Umbra, and HawkEye 360; GPS; miniature CubeSats for education and research; and military/defense satellites.

Loading next visibility...
Identifier
60522, 2024-149BG
Orbit
SSO
Country
Flag of UnknownUnknown / TURK
Related business
Manufacturer
Plan-S
Mission
Operational Commercial Communications
Bus & Motor
CUBESAT 6U, Unknown motor
Mass
10 kg wet, 10 kg dry
Launch date (UTC)
2024-08-16 (1 year ago)
Launch vehicle
FALCON 9
Launch site
Air Force Western Test Range (AFWTR)
Object type
Payload
Rocket body
Debris
Shape & HBR
Box, 2.2 m
Radar Cross Section
0.080 m², Medium (>0.1 m² and < 1m²)

Expand to show TLE details & history
Last TLE update: 6 hours ago

TLE from 6 hours ago
0 CONNECTA IOT-2
1 60522U 24149BG  25312.16496877  .00009123  00000-0  39132-3 0  9992
2 60522  97.4052  28.7277 0007581  35.3127 324.8611 15.22931261 68257
Epoch: 2025-11-08T03:57Z
TLE epoch observation values (Epoch: 2025-11-08T03:57:33.301Z)
Latitude
0.00001°
Longitude
-78.25956°
Altitude
495.837 km
Speed
7.619 km/s
True Right ascension
01h 54m 54s
True Declination
0° 00' 00"
Sunlit
Object was in full shadow at epoch
Visualization orbit readout
Latitude
Unknown
Longitude
Unknown
Altitude
Unknown
Speed
Unknown
Apparent Right ascension
Unknown
Apparent Declination
Unknown
Sunlit
N/A
Visualization observer readout
Local Sidereal Time
06:22:35
Azimuth
Unknown
Elevation
Unknown
Doppler factor
Unknown
Orbital elements
Apogee altitude
499.176 km
Perigee altitude
488.757 km
Semi-major axis
6,872.103 km
Eccentricity
0.00076
Inclination
97.4052°
RAAN
28.7277°
Arg. of periapsis
35.3127°
True anomaly
324.81106°
Mean anomaly
324.8611°
Eccentric anomaly
324.83608°
Mean motion
3.80986 °/min
Orbital period
94.49 mins
BSTAR
0.00039132
Loading maneuver chart data...
Computing Atmospheric mass density...
Loading historical data...
Loading historical data...
Loading historical data...
Loading historical data...
Loading historical data...
Loading historical data...
Loading historical data...

Documentation

Showing up to 5 results
|